Newton, KS

10:44 PM CST on November 19, 2019 (GMT -0600)
Newton City County

Weather History for KEWK - August, 2019

Change the Weather History Date:

Saturday, August 24, 2019

  Actual Average Record
Temperature  
Mean Temperature 73 °F -  
Max Temperature 78 °F 87 °F 104 °F (2011)
Min Temperature 68 °F 65 °F 53 °F (2015)
Cooling Degree Days 8    
Growing Degree Days 23 (Base 50)    
Moisture  
Dew Point 68 °F    
Average Humidity 88    
Maximum Humidity 100    
Minimum Humidity 74    
Precipitation  
Precipitation 0.00 in - - ()
Sea Level Pressure  
Sea Level Pressure 30.00 in    
Wind  
Wind Speed 7 mph (ESE)    
Max Wind Speed 17 mph    
Max Gust Speed 22 mph    
Visibility 10 miles    
Events      
Averages and records for this station are not official NWS values.
T = Trace of Precipitation, MM = Missing Value Source: NWS Daily Summary

Daily Weather History Graph

Daily Weather History Graph

Search for Another Location

Airport or City:

Astronomy

Aug. 24, 2019 Rise Set
Actual Time 6:51 AM CDT 8:10 PM CDT
Civil Twilight 6:24 AM CDT 8:37 PM CDT
Nautical Twilight 5:51 AM CDT 9:10 PM CDT
Astronomical Twilight 5:17 AM CDT 9:44 PM CDT
Moon 12:47 AM CDT (8/24) 3:25 PM CDT (8/24)
Length of Visible Light 14h 13m
Length of Day
13h 18m
Last Quarter, 39% of the Moon is Illuminated
Aug 24
Last Quarter
Aug 30
New
Sep 5
First Quarter
Sep 13
Full
Sep 21
Last Quarter

Hourly Weather History & Observations

Time (CDT) Temp. Dew Point Humidity Pressure Visibility Wind Dir Wind Speed Gust Speed Precip Events Conditions
12:56 AM 68.0 °F 66.9 °F 96% 30.03 in 10.0 mi ESE 5.8 mph - N/A   Clear
1:20 AM 68.0 °F 66.2 °F 94% 30.06 in 10.0 mi ESE 3.5 mph - N/A   Mostly Cloudy
1:37 AM 68.0 °F 66.2 °F 94% 30.06 in 10.0 mi East 3.5 mph - N/A   Scattered Clouds
1:41 AM 68.0 °F 66.2 °F 94% 30.06 in 10.0 mi ESE 3.5 mph - N/A   Mostly Cloudy
1:56 AM 68.0 °F 66.9 °F 96% 30.02 in 10.0 mi Calm Calm - N/A   Mostly Cloudy
2:56 AM 69.1 °F 66.9 °F 93% 30.01 in 10.0 mi Calm Calm - N/A   Mostly Cloudy
3:08 AM 69.8 °F 68.0 °F 94% 30.06 in 10.0 mi ESE 3.5 mph - N/A   Overcast
3:56 AM 69.1 °F 68.0 °F 96% 30.01 in 10.0 mi East 3.5 mph - N/A   Mostly Cloudy
4:22 AM 69.8 °F 68.0 °F 94% 30.05 in 10.0 mi East 4.6 mph - N/A   Overcast
4:56 AM 69.1 °F 68.0 °F 96% 30.00 in 10.0 mi East 5.8 mph - N/A   Overcast
5:07 AM 69.8 °F 69.8 °F 100% 30.04 in 10.0 mi ESE 6.9 mph - N/A   Overcast
5:56 AM 69.1 °F 68.0 °F 96% 30.00 in 9.0 mi East 5.8 mph - N/A   Overcast
6:56 AM 69.1 °F 68.0 °F 96% 30.01 in 9.0 mi East 9.2 mph - N/A   Overcast
7:41 AM 69.8 °F 68.0 °F 94% 30.05 in 10.0 mi ESE 9.2 mph - N/A   Overcast
7:56 AM 70.0 °F 68.0 °F 93% 30.01 in 10.0 mi East 6.9 mph - N/A   Overcast
8:45 AM 69.8 °F 68.0 °F 94% 30.04 in 10.0 mi East 6.9 mph - N/A   Overcast
8:56 AM 71.1 °F 68.0 °F 90% 30.00 in 10.0 mi East 8.1 mph - N/A   Overcast
9:56 AM 71.1 °F 68.0 °F 90% 30.01 in 10.0 mi ESE 11.5 mph - N/A   Overcast
10:28 AM 71.6 °F 68.0 °F 88% 30.04 in 10.0 mi ESE 11.5 mph - N/A   Overcast
10:56 AM 71.1 °F 68.0 °F 90% 30.01 in 10.0 mi East 10.4 mph - N/A   Overcast
11:56 AM 72.0 °F 69.1 °F 91% 30.01 in 10.0 mi ESE 9.2 mph - N/A   Overcast
12:28 PM 73.4 °F 69.8 °F 88% 30.04 in 10.0 mi SE 11.5 mph - N/A   Overcast
12:37 PM 73.4 °F 68.0 °F 83% 30.03 in 10.0 mi SE 10.4 mph - N/A   Overcast
12:47 PM 75.2 °F 69.8 °F 83% 30.03 in 10.0 mi SE 12.7 mph - N/A   Overcast
12:56 PM 75.9 °F 70.0 °F 82% 29.99 in 10.0 mi ESE 11.5 mph - N/A   Mostly Cloudy
1:16 PM 77.0 °F 69.8 °F 78% 30.02 in 10.0 mi SE 11.5 mph - N/A   Mostly Cloudy
1:56 PM 78.1 °F 69.1 °F 74% 29.96 in 10.0 mi ESE 12.7 mph 18.4 mph N/A   Mostly Cloudy
2:07 PM 78.8 °F 69.8 °F 74% 30.00 in 10.0 mi SE 13.8 mph - N/A   Mostly Cloudy
2:38 PM 77.0 °F 69.8 °F 78% 29.99 in 10.0 mi ESE 10.4 mph - N/A   Overcast
2:56 PM 77.0 °F 69.1 °F 76% 29.95 in 10.0 mi SSE 13.8 mph - N/A   Overcast
3:04 PM 77.0 °F 69.8 °F 78% 29.99 in 10.0 mi SSE 11.5 mph - N/A   Overcast
3:29 PM 75.2 °F 69.8 °F 83% 29.99 in 10.0 mi ESE 9.2 mph - N/A   Overcast
3:56 PM 75.9 °F 70.0 °F 82% 29.94 in 10.0 mi ESE 8.1 mph - N/A   Overcast
4:56 PM 78.1 °F 70.0 °F 76% 29.93 in 10.0 mi East 8.1 mph - N/A   Overcast
6:45 PM 75.2 °F 71.6 °F 89% 29.97 in 10.0 mi ESE 10.4 mph - N/A   Mostly Cloudy
6:56 PM 75.9 °F 70.0 °F 82% 29.94 in 10.0 mi East 10.4 mph - N/A   Overcast
7:56 PM 73.9 °F 70.0 °F 87% 29.94 in 10.0 mi East 10.4 mph - N/A   Overcast
8:56 PM 72.0 °F 69.1 °F 91% 29.94 in 10.0 mi ESE 12.7 mph - N/A   Overcast
9:56 PM 70.0 °F 66.9 °F 90% 29.94 in 10.0 mi ESE 15.0 mph 21.9 mph N/A   Overcast
10:14 PM 69.8 °F 66.2 °F 88% 29.98 in 10.0 mi ESE 13.8 mph - N/A   Overcast
10:56 PM 69.1 °F 66.9 °F 93% 29.93 in 10.0 mi ESE 17.3 mph - N/A   Overcast
11:56 PM 69.1 °F 66.9 °F 93% 29.93 in 10.0 mi East 11.5 mph - N/A   Overcast